Preview of NWS' New Version of Forecast
This preview is not operational and should not be used for support decisions.

Regional Weather Roundup (RWR)

Issued by National Weather Service (NWS)

                            
000
ASUS45 KABQ 220310
RWRNM 
NEW MEXICO REGIONAL WEATHER ROUNDUP
NATIONAL WEATHER SERVICE ALBUQUERQUE NM
900 PM MDT SUN APR 21 2019

NOTE: "FAIR" MEANS FEW OR NO CLOUDS BELOW 12,000 FEET AGL WITH NO
       SIGNIFICANT WEATHER OR OBSTRUCTIONS TO VISION.

      THIS PRODUCT IS RELEASED AS TWO VERSIONS.  ONE VERSION NEAR
      THE TOP OF THE HOUR CONTAINING PRELIMINARY DATA FROM ALBUQUERQUE
      AND OTHER STATIONS.  A FINAL VERSION WITH ADDITIONAL DATA IS 
      ISSUED ABOUT 10 MINUTES AFTER THE HOUR.
 
NMZ501-503-504-510>518-220400-
NORTHWEST PLATEAU/NORTHCENTRAL MOUNTAINS
  
CITY           SKY/WX    TMP DP  RH WIND       PRES   REMARKS
FARMINGTON     FAIR      62  15  16 W10       29.90R                  
LOS ALAMOS       N/A     59  15  17 NW5       30.05R                  
SANTA FE       MOCLDY    59  21  23 SE8       29.99R                  
TAOS           FAIR      54  19  25 N6        30.07R                  
ANGEL FIRE       N/A     40  25  55 S6        30.12R                  

$$
NMZ402-403-502-505>509-220400-
WESTCENTRAL MOUNTAINS/SOUTHWEST MOUNTAINS
  
CITY           SKY/WX    TMP DP  RH WIND       PRES   REMARKS
GALLUP         FAIR      54  16  22 S9        30.01R                  
GRANTS         FAIR      52  19  27 W7        30.04R                  
SILVER CITY    FAIR      56  18  21 NW9       30.00R                  

$$
NMZ407-409-411-412-220400-
SOUTHERN DESERTS
  
CITY           SKY/WX    TMP DP  RH WIND       PRES   REMARKS
DEMING         FAIR      73  22  14 SW10      29.93R                  
LAS CRUCES     FAIR      74  22  14 SW10      29.95R                  
HOLLOMAN AFB   FAIR      71  25  18 CALM      29.94R                  
ALAMOGORDO     FAIR      68  23  18 CALM      29.94R                  
T OR C         FAIR      71  19  14 SW8       29.94R                  

$$
NMZ519>523-220400-
CENTRAL VALLEYS/CENTRAL HIGHLANDS
  
CITY           SKY/WX    TMP DP  RH WIND       PRES   REMARKS
ALBUQUERQUE    FAIR      68  25  19 W5        29.94R                  
DOUBLE EAGLE   MOCLDY    57  28  33 W7        29.96R                  
MORIARTY ARPT  FAIR      53  26  35 E5        30.00R                  
CLINES CORNERS FAIR      59  18  20 SE3       30.05R                  
BELEN          FAIR      70  20  15 W9        29.94R                  
SOCORRO        FAIR      71  17  12 W9        29.92R                  

$$
NMZ524>526-539-540-220400-
SOUTHCENTRAL MOUNTAINS
  
CITY           SKY/WX    TMP DP  RH WIND       PRES   REMARKS
RUIDOSO        FAIR      59  18  20 SW9       30.08R                  

$$
NMZ527>531-220400-
NORTHEAST HIGHLANDS/NORTHEAST PLAINS
  
CITY           SKY/WX    TMP DP  RH WIND       PRES   REMARKS
LAS VEGAS      FAIR      56  20  24 W3        30.03R                  
RATON          FAIR      54  17  23 W8        29.98R                  
CLAYTON        FAIR      56  20  24 W8        29.90R                  

$$
NMZ532>537-220400-
EASTCENTRAL PLAINS
  
CITY           SKY/WX    TMP DP  RH WIND       PRES   REMARKS
SANTA ROSA     FAIR      63  21  20 CALM      29.91R                  
TUCUMCARI      FAIR      60  29  30 W3        29.85R                  
CANNON AFB     FAIR      67  23  19 NW7       29.91R                  
CLOVIS AIRPORT FAIR      62  30  29 NW7       29.90R                  

$$
NMZ028-029-538-220400-
SOUTHEAST PLAINS
  
CITY           SKY/WX    TMP DP  RH WIND       PRES   REMARKS
ROSWELL        FAIR      77  19  11 W13       29.86R                  
ARTESIA        FAIR      73  23  15 SW13      29.89R                  
CARLSBAD       FAIR      76  28  17 S6        29.87R                  
HOBBS          FAIR      66  25  20 S6        29.92R                  


$$